General Downing - Peoria International Airport (PIA)


Airport Diagram
Current Weather/Forecast (VFR Conditions)
METAR KPIA 240854Z 00000KT 10SM CLR 04/02 A2990 RMK AO2 SLP127 T00440017 58007
TAF KPIA 240521Z 2406/2506 VRB03KT P6SM SCT040 BKN200 FM241400 07005KT 5SM BR VCSH OVC021 FM241800 05011KT 3SM -RA BR OVC012 FM242200 04013KT 4SM -RA BR OVC007

All Charts
General
Chart Name Download
AIRPORT DIAGRAM
TAKEOFF MINIMUMS
ALTERNATE MINIMUMS
HOT SPOT

Approaches
Chart Name Download
HI-ILS OR LOC RWY 31
ILS OR LOC RWY 04
ILS OR LOC RWY 13
ILS OR LOC RWY 31
ILS RWY 04 (SA CAT I - II)
RNAV (GPS) RWY 04
RNAV (GPS) RWY 13
RNAV (GPS) RWY 22
RNAV (GPS) RWY 31
HI-VOR/DME OR TACAN RWY 31
VOR/DME OR TACAN RWY 31
VOR OR TACAN RWY 13
NDB RWY 31